Tracking 18032 objects as of 27-March-2017
HD Live streaming from Space Station
objects crossing your sky now

OPS 9343 (IDSCS 22)

Track OPS 9343 (IDSCS 22) now!
OPS 9343 (IDSCS 22) is classified as:


NORAD ID: 3286
Int'l Code: 1968-050C
Perigee: 33,750.5 km
Apogee: 33,885.2 km
Inclination: 1.2 °
Period: 1,336.3 minutes
Semi major axis: 40188 km
RCS: 0.2393 m2 (medium)
Launch date: June 13, 1968
Source: United States (US)
Launch site: AIR FORCE EASTERN TEST RANGE (AFETR)
Your satellite tracking list
Your tracking list is empty





NASA's NSSDC Master Catalog

Two Line Element Set (TLE):
1  3286U 68050C   17083.74562245 -.00000064 +00000-0 +00000-0 0  9993
2  3286 001.2280 027.9073 0016756 103.5216 110.3216 01.07756842103520
Source of the keplerian elements: AFSPC